This is the latest recevied weather packets stored in our database for station/object KF0JHJ. If no packets are shown the sender has not sent any weather packets the latest 10 day(s).
| Time | Temp. | Humidity | Pressure | Rain* | Wind** | Luminosity | Snow |
|---|---|---|---|---|---|---|---|
| 1777504487 | 12.22° C | 48% | 1014 hPa | - | - | 59 W/m² | - |
| 1777504183 | 11.67° C | 49% | 1014.3 hPa | - | - | 73 W/m² | - |
| 1777503879 | 11.67° C | 51% | 1014.2 hPa | - | - | 79 W/m² | - |
| 1777503575 | 11.67° C | 49% | 1014.1 hPa | - | - | 84 W/m² | - |
| 1777503273 | 11.67° C | 49% | 1014.2 hPa | - | - | 71 W/m² | - |
| 1777502968 | 12.22° C | 49% | 1013.9 hPa | - | - | 73 W/m² | - |
| 1777502666 | 12.22° C | 46% | 1014 hPa | - | - | 77 W/m² | - |
| 1777502363 | 12.78° C | 48% | 1014.1 hPa | - | - | 84 W/m² | - |
| 1777502060 | 13.89° C | 48% | 1014.1 hPa | - | - | 325 W/m² | - |
| 1777501756 | 13.89° C | 44% | 1014 hPa | - | - | 354 W/m² | - |
| 1777501454 | 13.33° C | 45% | 1014.1 hPa | - | - | 382 W/m² | - |
| 1777501151 | 12.78° C | 45% | 1014.2 hPa | - | - | 168 W/m² | - |
| 1777500850 | 12.78° C | 46% | 1014.3 hPa | - | - | 343 W/m² | - |
| 1777500546 | 12.78° C | 48% | 1014.3 hPa | - | - | 126 W/m² | - |
| 1777500243 | 12.22° C | 50% | 1014.2 hPa | - | - | 103 W/m² | - |
| 1777499939 | 12.78° C | 47% | 1014.2 hPa | - | - | 126 W/m² | - |
| 1777499635 | 12.78° C | 48% | 1014.6 hPa | - | - | 97 W/m² | - |
| 1777499333 | 13.33° C | 46% | 1014.2 hPa | - | - | 131 W/m² | - |
| 1777499030 | 13.33° C | 46% | 1014.3 hPa | - | - | 350 W/m² | - |
| 1777498727 | 13.89° C | 47% | 1014.3 hPa | - | - | 196 W/m² | - |
| 1777498423 | 12.22° C | 50% | 1014.4 hPa | - | - | 524 W/m² | - |
| 1777498120 | 12.22° C | 49% | 1014.5 hPa | - | - | 88 W/m² | - |
| 1777497818 | 12.22° C | 47% | 1014.3 hPa | - | - | 105 W/m² | - |
| 1777497514 | 12.78° C | 47% | 1014.5 hPa | - | - | 493 W/m² | - |
| 1777497210 | 12.78° C | 47% | 1014.7 hPa | - | - | 576 W/m² | - |
* Rain since midnight (hover to see other rain measurements)
** Current wind speed in m/s (hover to see current wind gust speed)